TimeCDT,TemperatureF,Dew PointF,Humidity,Sea Level PressureIn,VisibilityMPH,Wind Direction,Wind SpeedMPH,Gust SpeedMPH,PrecipitationIn,Events,Conditions,WindDirDegrees,DateUTC
12:34 AM,33.8,33.8,100,29.73,7.0,West,12.7,18.4,N/A,,Overcast,280,2013-03-11 05:34:00
12:55 AM,32.0,32.0,100,29.76,6.0,West,12.7,20.7,N/A,,Overcast,270,2013-03-11 05:55:00
1:52 AM,32.0,32.0,100,29.73,9.0,West,8.1,-,N/A,,Overcast,270,2013-03-11 06:52:00
1:55 AM,32.0,32.0,100,29.76,8.0,West,8.1,-,N/A,,Overcast,260,2013-03-11 06:55:00
2:14 AM,32.0,32.0,100,29.72,8.0,West,10.4,-,N/A,,Overcast,260,2013-03-11 07:14:00
2:55 AM,32.0,32.0,100,29.74,8.0,West,11.5,20.7,N/A,,Overcast,280,2013-03-11 07:55:00
3:26 AM,30.2,30.2,100,29.70,2.5,West,12.7,19.6,0.00,Snow,Light Snow,280,2013-03-11 08:26:00
3:43 AM,30.2,30.2,100,29.70,6.0,West,10.4,-,0.00,,Overcast,280,2013-03-11 08:43:00
3:55 AM,30.9,30.9,100,29.73,9.0,West,11.5,18.4,0.00,,Overcast,280,2013-03-11 08:55:00
4:25 AM,30.2,30.2,100,29.69,10.0,West,12.7,-,N/A,,Overcast,280,2013-03-11 09:25:00
4:55 AM,30.0,30.0,100,29.74,10.0,West,13.8,-,N/A,,Overcast,280,2013-03-11 09:55:00
5:55 AM,30.0,28.0,92,29.77,10.0,West,12.7,21.9,N/A,,Overcast,280,2013-03-11 10:55:00
6:55 AM,30.0,28.0,92,29.78,9.0,WNW,13.8,-,N/A,,Overcast,290,2013-03-11 11:55:00
7:55 AM,28.9,27.0,92,29.79,8.0,West,10.4,19.6,N/A,,Overcast,280,2013-03-11 12:55:00
8:55 AM,28.9,26.1,89,29.80,3.0,WNW,13.8,21.9,N/A,,Overcast,290,2013-03-11 13:55:00
9:01 AM,28.4,26.6,93,29.77,1.8,WNW,12.7,21.9,0.00,Snow,Light Snow,290,2013-03-11 14:01:00
9:23 AM,28.4,26.6,93,29.77,3.0,WNW,16.1,24.2,0.00,Snow,Light Snow,290,2013-03-11 14:23:00
9:55 AM,28.0,26.1,92,29.81,8.0,WNW,17.3,24.2,0.00,,Overcast,290,2013-03-11 14:55:00
10:55 AM,28.9,26.1,89,29.82,10.0,WNW,13.8,24.2,N/A,,Overcast,290,2013-03-11 15:55:00
11:55 AM,30.0,25.0,82,29.84,10.0,West,18.4,23.0,N/A,,Overcast,280,2013-03-11 16:55:00
12:55 PM,30.0,25.0,82,29.85,10.0,West,17.3,25.3,N/A,,Overcast,280,2013-03-11 17:55:00
1:17 PM,30.2,26.6,86,29.81,10.0,West,13.8,24.2,N/A,,Overcast,280,2013-03-11 18:17:00
1:55 PM,30.9,26.1,82,29.84,10.0,WNW,13.8,21.9,N/A,,Overcast,290,2013-03-11 18:55:00
2:55 PM,32.0,27.0,82,29.85,10.0,West,16.1,25.3,N/A,,Overcast,280,2013-03-11 19:55:00
3:55 PM,32.0,27.0,82,29.86,10.0,West,13.8,-,N/A,,Overcast,280,2013-03-11 20:55:00
4:55 PM,30.9,25.0,79,29.89,10.0,West,16.1,-,N/A,,Overcast,280,2013-03-11 21:55:00
5:41 PM,30.2,24.8,80,29.85,10.0,West,12.7,-,N/A,,Overcast,280,2013-03-11 22:41:00
5:55 PM,30.2,24.8,80,29.86,10.0,WNW,11.5,-,N/A,,Overcast,290,2013-03-11 22:55:00
6:55 PM,30.9,23.0,72,29.93,10.0,West,10.4,-,N/A,,Overcast,270,2013-03-11 23:55:00
7:55 PM,30.0,21.9,72,29.95,10.0,West,8.1,-,N/A,,Mostly Cloudy,270,2013-03-12 00:55:00
8:19 PM,28.4,21.2,74,29.90,10.0,West,6.9,-,N/A,,Scattered Clouds,260,2013-03-12 01:19:00
8:55 PM,28.9,21.9,75,29.97,10.0,West,8.1,-,N/A,,Clear,260,2013-03-12 01:55:00
9:55 PM,28.0,21.9,78,29.98,10.0,WNW,8.1,-,N/A,,Clear,300,2013-03-12 02:55:00
10:55 PM,27.0,21.0,78,30.00,10.0,WNW,5.8,-,N/A,,Scattered Clouds,290,2013-03-12 03:55:00
11:55 PM,25.0,19.9,81,30.01,10.0,WNW,8.1,-,N/A,,Clear,300,2013-03-12 04:55:00